When you browse on this site, cookies collect data to enhance your experience and personalize the content and advertising you see.
Visit our Privacy Policy to learn more. By continuing to use the site, you agree to this use of cookies and data.
  • In Lithuania
  • List of Countries
  • For 7 days
  • Water Temperature
  • Satellite Maps
  • Weather Map
  • Weather Widgets
  • user-avatar
    Login

    Hourly Weather Zelenaya Roscha

    Today, 23 February, Saturday

    Time Temperature Precipitation Wind Pressure Humidity
    00:00 +1°C° 0 mm 4 mps 750 mmHg 73%
    01:00 0°C° 0 mm 4 mps 750 mmHg 76%
    02:00 +1°C° 0 mm 3 mps 750 mmHg 79%
    03:00 +1°C° 0 mm 2 mps 750 mmHg 83%
    04:00 +1°C° 0 mm 2 mps 750 mmHg 85%
    05:00 +1°C° 0 mm 2 mps 751 mmHg 88%
    06:00 +1°C° 0 mm 2 mps 751 mmHg 90%
    07:00 +1°C° 0 mm 3 mps 751 mmHg 89%
    08:00 +2°C° 0 mm 3 mps 751 mmHg 87%
    09:00 +2°C° 0 mm 3 mps 752 mmHg 86%
    10:00 +3°C° 0 mm 3 mps 752 mmHg 83%
    11:00 +4°C° 0 mm 3 mps 751 mmHg 80%
    12:00 +4°C° 0 mm 3 mps 751 mmHg 77%
    13:00 +7°C° 0 mm 3 mps 751 mmHg 72%
    14:00 +8°C° 0 mm 3 mps 751 mmHg 67%
    15:00 +9°C° 0 mm 3 mps 751 mmHg 62%
    16:00 +8°C° 0 mm 2 mps 751 mmHg 65%
    17:00 +7°C° 0 mm 2 mps 752 mmHg 68%
    18:00 +7°C° 0 mm 2 mps 752 mmHg 72%
    19:00 +6°C° 0 mm 2 mps 752 mmHg 74%
    20:00 +6°C° 0 mm 2 mps 753 mmHg 76%
    21:00 +5°C° 0 mm 2 mps 753 mmHg 78%
    22:00 +5°C° 0 mm 2 mps 753 mmHg 80%
    23:00 +4°C° 0 mm 2 mps 753 mmHg 81%

    Tomorrow, 24 February, Sunday

    Time Temperature Precipitation Wind Pressure Humidity
    00:00 +3°C° 0 mm 3 mps 753 mmHg 82%
    01:00 +4°C° 0 mm 2 mps 754 mmHg 83%
    02:00 +4°C° 0 mm 1 mps 754 mmHg 85%
    03:00 +4°C° 0 mm 1 mps 754 mmHg 86%
    04:00 +4°C° 0 mm 1 mps 754 mmHg 88%
    05:00 +3°C° 0 mm 1 mps 754 mmHg 89%
    06:00 +2°C° 0 mm 0 mps 754 mmHg 90%
    07:00 +4°C° 0.1 mm 1 mps 754 mmHg 87%
    08:00 +5°C° 0.1 mm 1 mps 754 mmHg 84%
    09:00 +5°C° 0.1 mm 1 mps 755 mmHg 80%
    10:00 +6°C° 0 mm 1 mps 755 mmHg 74%
    11:00 +8°C° 0 mm 1 mps 755 mmHg 68%
    12:00 +8°C° 0 mm 2 mps 754 mmHg 62%
    13:00 +9°C° 0 mm 2 mps 754 mmHg 60%
    14:00 +9°C° 0 mm 2 mps 754 mmHg 58%
    15:00 +10°C° 0 mm 3 mps 754 mmHg 56%
    16:00 +8°C° 0.1 mm 4 mps 754 mmHg 62%
    17:00 +7°C° 0.1 mm 4 mps 755 mmHg 69%
    18:00 +6°C° 0.1 mm 5 mps 755 mmHg 75%
    19:00 +5°C° 0.4 mm 5 mps 755 mmHg 77%
    20:00 +4°C° 0.4 mm 4 mps 756 mmHg 78%
    21:00 +3°C° 0.4 mm 4 mps 756 mmHg 80%
    22:00 +1°C° 0.3 mm 4 mps 756 mmHg 80%
    23:00 +1°C° 0.3 mm 4 mps 756 mmHg 81%

    Day after tomorrow, 25 February, Monday

    Time Temperature Precipitation Wind Pressure Humidity
    00:00 +2°C° 0.3 mm 3 mps 756 mmHg 81%
    01:00 +1°C° 0.2 mm 3 mps 756 mmHg 82%
    02:00 +1°C° 0.2 mm 3 mps 756 mmHg 82%
    03:00 +1°C° 0.2 mm 3 mps 756 mmHg 83%
    04:00 +1°C° 0.1 mm 2 mps 756 mmHg 84%
    05:00 +1°C° 0.1 mm 2 mps 756 mmHg 84%
    06:00 +1°C° 0.1 mm 2 mps 756 mmHg 85%
    07:00 +1°C° 0 mm 2 mps 756 mmHg 83%
    08:00 +1°C° 0 mm 2 mps 756 mmHg 81%
    09:00 0°C° 0 mm 3 mps 756 mmHg 79%
    10:00 +1°C° 0 mm 3 mps 756 mmHg 73%
    11:00 +1°C° 0 mm 4 mps 755 mmHg 67%
    12:00 +2°C° 0 mm 5 mps 755 mmHg 62%
    13:00 +3°C° 0 mm 5 mps 754 mmHg 55%
    14:00 +5°C° 0 mm 5 mps 753 mmHg 48%
    15:00 +6°C° 0 mm 5 mps 753 mmHg 42%
    16:00 +5°C° 0 mm 4 mps 752 mmHg 44%
    17:00 +4°C° 0 mm 3 mps 752 mmHg 47%
    18:00 +4°C° 0 mm 2 mps 752 mmHg 50%
    19:00 +3°C° 0 mm 2 mps 752 mmHg 52%
    20:00 +3°C° 0 mm 2 mps 751 mmHg 54%
    21:00 +2°C° 0 mm 2 mps 751 mmHg 56%
    22:00 +1°C° 0 mm 3 mps 750 mmHg 57%
    23:00 +1°C° 0 mm 3 mps 750 mmHg 58%

    26 February, Tuesday

    Time Temperature Precipitation Wind Pressure Humidity
    00:00 0°C° 0 mm 3 mps 749 mmHg 60%
    01:00 0°C° 0 mm 3 mps 748 mmHg 62%
    02:00 0°C° 0 mm 3 mps 748 mmHg 65%
    03:00 -2°C° 0 mm 4 mps 747 mmHg 67%
    04:00 -2°C° 0 mm 4 mps 747 mmHg 67%
    05:00 -2°C° 0 mm 4 mps 746 mmHg 67%
    06:00 -2°C° 0 mm 4 mps 745 mmHg 66%
    07:00 -1°C° 0 mm 5 mps 745 mmHg 63%
    08:00 -1°C° 0 mm 6 mps 745 mmHg 60%
    09:00 0°C° 0 mm 7 mps 744 mmHg 57%
    10:00 +1°C° 0.1 mm 8 mps 744 mmHg 57%
    11:00 +2°C° 0.1 mm 8 mps 743 mmHg 57%
    12:00 +2°C° 0.1 mm 8 mps 743 mmHg 57%
    13:00 +3°C° 0.4 mm 7 mps 742 mmHg 60%
    14:00 +3°C° 0.4 mm 6 mps 742 mmHg 63%
    15:00 +4°C° 0.4 mm 4 mps 741 mmHg 66%
    16:00 +3°C° 0.2 mm 4 mps 741 mmHg 67%
    17:00 +1°C° 0.2 mm 4 mps 741 mmHg 68%
    18:00 +2°C° 0.2 mm 3 mps 741 mmHg 68%
    19:00 +1°C° 0.1 mm 3 mps 741 mmHg 70%
    20:00 +1°C° 0.1 mm 3 mps 740 mmHg 71%
    21:00 +2°C° 0.1 mm 2 mps 740 mmHg 73%
    22:00 +1°C° 0.1 mm 2 mps 740 mmHg 75%
    23:00 +1°C° 0.1 mm 2 mps 740 mmHg 77%

    27 February, Wednesday

    Time Temperature Precipitation Wind Pressure Humidity
    00:00 -1°C° 0.1 mm 2 mps 739 mmHg 80%
    01:00 -1°C° 0 mm 2 mps 739 mmHg 80%
    02:00 -1°C° 0 mm 2 mps 738 mmHg 81%
    03:00 -1°C° 0 mm 2 mps 738 mmHg 81%
    04:00 -1°C° 0 mm 2 mps 738 mmHg 82%
    05:00 -1°C° 0 mm 2 mps 738 mmHg 84%
    06:00 -1°C° 0 mm 2 mps 738 mmHg 85%
    07:00 -1°C° 0.1 mm 2 mps 738 mmHg 84%
    08:00 +1°C° 0.1 mm 2 mps 738 mmHg 83%
    09:00 +1°C° 0.1 mm 2 mps 738 mmHg 82%
    10:00 +2°C° 0 mm 2 mps 737 mmHg 79%
    11:00 +2°C° 0 mm 2 mps 737 mmHg 75%
    12:00 +4°C° 0 mm 1 mps 737 mmHg 72%
    13:00 +4°C° 0 mm 1 mps 737 mmHg 69%
    14:00 +5°C° 0 mm 1 mps 737 mmHg 67%
    15:00 +4°C° 0 mm 0 mps 737 mmHg 65%
    16:00 +5°C° 0 mm 1 mps 737 mmHg 69%
    17:00 +4°C° 0 mm 1 mps 737 mmHg 73%
    18:00 +4°C° 0 mm 1 mps 738 mmHg 77%
    19:00 +3°C° 0 mm 1 mps 738 mmHg 78%
    20:00 +3°C° 0 mm 1 mps 738 mmHg 80%
    21:00 +2°C° 0 mm 1 mps 739 mmHg 82%
    22:00 +2°C° 0 mm 1 mps 739 mmHg 83%
    23:00 +2°C° 0 mm 1 mps 739 mmHg 83%

    28 February, Thursday

    Time Temperature Precipitation Wind Pressure Humidity
    00:00 +2°C° 0 mm 1 mps 740 mmHg 83%
    01:00 +2°C° 0.1 mm 1 mps 740 mmHg 83%
    02:00 +2°C° 0.1 mm 1 mps 740 mmHg 83%
    03:00 +2°C° 0.1 mm 1 mps 741 mmHg 83%
    04:00 +2°C° 0.2 mm 1 mps 741 mmHg 86%
    05:00 +1°C° 0.2 mm 2 mps 742 mmHg 88%
    06:00 +1°C° 0.2 mm 2 mps 742 mmHg 91%
    07:00 +1°C° 0.2 mm 2 mps 742 mmHg 88%
    08:00 0°C° 0.2 mm 3 mps 742 mmHg 86%
    09:00 0°C° 0.2 mm 3 mps 743 mmHg 83%
    10:00 +1°C° 0 mm 3 mps 743 mmHg 77%
    11:00 +1°C° 0 mm 4 mps 742 mmHg 70%
    12:00 +3°C° 0 mm 4 mps 742 mmHg 63%
    13:00 +3°C° 0 mm 4 mps 742 mmHg 61%
    14:00 +3°C° 0 mm 5 mps 741 mmHg 58%
    15:00 +3°C° 0 mm 5 mps 741 mmHg 55%
    16:00 +3°C° 0 mm 4 mps 741 mmHg 59%
    17:00 +1°C° 0 mm 4 mps 741 mmHg 63%
    18:00 +2°C° 0 mm 3 mps 741 mmHg 67%
    19:00 +1°C° 0 mm 3 mps 741 mmHg 69%
    20:00 +1°C° 0 mm 3 mps 741 mmHg 70%
    21:00 -1°C° 0 mm 4 mps 741 mmHg 72%
    22:00 0°C° 0 mm 3 mps 741 mmHg 73%
    23:00 0°C° 0 mm 3 mps 741 mmHg 75%
    Show more